TimeEST,TemperatureF,Dew PointF,Humidity,Sea Level PressureIn,VisibilityMPH,Wind Direction,Wind SpeedMPH,Gust SpeedMPH,PrecipitationIn,Events,Conditions,WindDirDegrees,DateUTC
12:15 AM,32.0,32.0,100,30.19,0.8,Calm,Calm,-,N/A,,Mist,0,2012-11-22 05:15:00
12:35 AM,35.6,35.6,100,30.19,0.2,Calm,Calm,-,N/A,Fog,Fog,0,2012-11-22 05:35:00
12:55 AM,35.6,33.8,93,30.18,0.2,Calm,Calm,-,N/A,Fog,Fog,0,2012-11-22 05:55:00
1:15 AM,35.6,33.8,93,30.18,0.2,Calm,Calm,-,N/A,Fog,Fog,0,2012-11-22 06:15:00
1:35 AM,33.8,32.0,93,30.17,0.2,Calm,Calm,-,N/A,Fog,Fog,0,2012-11-22 06:35:00
1:55 AM,35.6,33.8,93,30.17,0.2,Calm,Calm,-,N/A,Fog,Fog,0,2012-11-22 06:55:00
2:15 AM,35.6,33.8,93,30.17,0.2,Calm,Calm,-,N/A,Fog,Fog,0,2012-11-22 07:15:00
2:35 AM,35.6,33.8,93,30.17,0.2,Calm,Calm,-,N/A,Fog,Fog,0,2012-11-22 07:35:00
2:55 AM,37.4,35.6,93,30.17,0.2,Calm,Calm,-,N/A,Fog,Fog,0,2012-11-22 07:55:00
3:15 AM,35.6,35.6,100,30.16,0.2,Calm,Calm,-,N/A,Fog,Fog,0,2012-11-22 08:15:00
3:35 AM,35.6,35.6,100,30.16,0.5,Calm,Calm,-,N/A,Fog,Fog,0,2012-11-22 08:35:00
3:55 AM,39.2,37.4,93,30.16,1.5,SSW,3.5,-,N/A,,Mist,200,2012-11-22 08:55:00
4:15 AM,39.2,37.4,93,30.15,1.2,Calm,Calm,-,N/A,,Mist,0,2012-11-22 09:15:00
4:35 AM,35.6,35.6,100,30.15,0.5,Calm,Calm,-,N/A,Fog,Fog,0,2012-11-22 09:35:00
4:55 AM,35.6,33.8,93,30.15,0.2,Calm,Calm,-,N/A,Fog,Fog,0,2012-11-22 09:55:00
5:15 AM,39.2,37.4,93,30.15,1.2,SSW,3.5,-,N/A,,Mist,200,2012-11-22 10:15:00
5:35 AM,33.8,33.8,100,30.15,0.2,Calm,Calm,-,N/A,Fog,Fog,0,2012-11-22 10:35:00
5:55 AM,35.6,33.8,93,30.15,0.2,South,3.5,-,N/A,Fog,Fog,180,2012-11-22 10:55:00
6:15 AM,35.6,35.6,100,30.15,0.2,Calm,Calm,-,N/A,Fog,Fog,0,2012-11-22 11:15:00
6:35 AM,35.6,35.6,100,30.15,0.8,South,3.5,-,N/A,,Mist,190,2012-11-22 11:35:00
6:55 AM,35.6,33.8,93,30.13,0.2,South,3.5,-,N/A,Fog,Fog,190,2012-11-22 11:55:00
7:15 AM,35.6,33.8,93,30.13,0.5,SSW,3.5,-,N/A,Fog,Fog,200,2012-11-22 12:15:00
7:35 AM,37.4,35.6,93,30.14,1.2,SSW,3.5,-,N/A,,Mist,200,2012-11-22 12:35:00
7:55 AM,39.2,37.4,93,30.14,1.0,South,4.6,-,N/A,,Mist,190,2012-11-22 12:55:00
8:15 AM,39.2,37.4,93,30.14,1.0,South,4.6,-,N/A,,Mist,190,2012-11-22 13:15:00
8:55 AM,41.0,41.0,100,30.14,1.2,South,4.6,-,N/A,,Mist,190,2012-11-22 13:55:00
9:15 AM,42.8,42.8,100,30.13,1.8,South,5.8,-,N/A,,Mist,190,2012-11-22 14:15:00
9:35 AM,44.6,44.6,100,30.13,3.0,South,8.1,-,N/A,,Clear,190,2012-11-22 14:35:00
9:55 AM,46.4,44.6,93,30.12,4.0,South,6.9,-,N/A,,Clear,190,2012-11-22 14:55:00
10:15 AM,50.0,42.8,76,30.12,5.0,SSW,10.4,-,N/A,,Haze,200,2012-11-22 15:15:00
10:55 AM,53.6,44.6,72,30.11,5.0,SSW,11.5,17.3,N/A,,Haze,200,2012-11-22 15:55:00
11:15 AM,55.4,44.6,67,30.10,7.0,SSW,9.2,-,N/A,,Clear,210,2012-11-22 16:15:00
11:35 AM,55.4,44.6,67,30.09,7.0,SSW,12.7,20.7,N/A,,Clear,200,2012-11-22 16:35:00
11:55 AM,59.0,42.8,55,30.08,10.0,SSW,10.4,18.4,N/A,,Clear,200,2012-11-22 16:55:00
12:15 PM,59.0,42.8,55,30.07,10.0,SSW,12.7,19.6,N/A,,Clear,210,2012-11-22 17:15:00
12:55 PM,60.8,42.8,52,30.05,10.0,SSW,11.5,17.3,N/A,,Clear,200,2012-11-22 17:55:00
1:15 PM,60.8,42.8,52,30.05,10.0,SSW,10.4,19.6,N/A,,Clear,210,2012-11-22 18:15:00
1:35 PM,60.8,41.0,48,30.04,10.0,SSW,12.7,16.1,N/A,,Clear,200,2012-11-22 18:35:00
1:55 PM,59.0,41.0,51,30.03,10.0,SSW,11.5,18.4,N/A,,Clear,200,2012-11-22 18:55:00
2:15 PM,60.8,41.0,48,30.01,10.0,SSW,9.2,-,N/A,,Clear,200,2012-11-22 19:15:00
2:35 PM,60.8,39.2,45,30.00,10.0,South,10.4,19.6,N/A,,Clear,190,2012-11-22 19:35:00
2:55 PM,60.8,39.2,45,30.00,10.0,South,10.4,19.6,N/A,,Clear,190,2012-11-22 19:55:00
3:15 PM,60.8,37.4,42,29.99,10.0,South,10.4,18.4,N/A,,Clear,190,2012-11-22 20:15:00
3:35 PM,60.8,37.4,42,29.99,10.0,SSW,12.7,18.4,N/A,,Clear,200,2012-11-22 20:35:00
3:55 PM,59.0,37.4,45,29.99,10.0,SSW,9.2,-,N/A,,Clear,200,2012-11-22 20:55:00
4:15 PM,59.0,37.4,45,29.98,10.0,South,8.1,16.1,N/A,,Clear,190,2012-11-22 21:15:00
4:35 PM,59.0,37.4,45,29.98,10.0,SSW,9.2,16.1,N/A,,Clear,200,2012-11-22 21:35:00
4:55 PM,59.0,37.4,45,29.98,10.0,South,9.2,16.1,N/A,,Clear,190,2012-11-22 21:55:00
5:15 PM,57.2,37.4,48,29.97,10.0,South,8.1,16.1,N/A,,Clear,190,2012-11-22 22:15:00
5:35 PM,55.4,37.4,51,29.97,10.0,South,6.9,-,N/A,,Clear,180,2012-11-22 22:35:00
5:55 PM,55.4,37.4,51,29.97,10.0,South,6.9,-,N/A,,Mostly Cloudy,190,2012-11-22 22:55:00
6:15 PM,55.4,37.4,51,29.96,10.0,South,8.1,-,N/A,,Mostly Cloudy,180,2012-11-22 23:15:00
6:35 PM,55.4,39.2,54,29.95,10.0,South,8.1,-,N/A,,Mostly Cloudy,180,2012-11-22 23:35:00
6:55 PM,55.4,39.2,54,29.95,10.0,South,9.2,-,N/A,Rain,Light Rain,190,2012-11-22 23:55:00
7:15 PM,55.4,41.0,58,29.95,10.0,South,9.2,17.3,N/A,Rain,Light Rain,190,2012-11-23 00:15:00
7:35 PM,55.4,41.0,58,29.93,10.0,South,8.1,18.4,N/A,,Overcast,180,2012-11-23 00:35:00
7:55 PM,55.4,41.0,58,29.93,10.0,South,6.9,-,N/A,,Overcast,180,2012-11-23 00:55:00
8:55 PM,55.4,39.2,54,29.92,10.0,SSW,9.2,18.4,N/A,,Mostly Cloudy,210,2012-11-23 01:55:00
9:15 PM,53.6,39.2,58,29.91,10.0,SSW,9.2,-,N/A,,Scattered Clouds,210,2012-11-23 02:15:00
9:35 PM,53.6,37.4,54,29.91,10.0,SSW,10.4,16.1,N/A,,Scattered Clouds,210,2012-11-23 02:35:00
9:55 PM,55.4,37.4,51,29.90,10.0,SSW,12.7,18.4,N/A,,Mostly Cloudy,200,2012-11-23 02:55:00
10:15 PM,53.6,37.4,54,29.90,10.0,SSW,10.4,17.3,N/A,,Scattered Clouds,200,2012-11-23 03:15:00
10:35 PM,55.4,37.4,51,29.89,10.0,SSW,10.4,18.4,N/A,,Scattered Clouds,210,2012-11-23 03:35:00
10:55 PM,55.4,37.4,51,29.88,10.0,SSW,10.4,17.3,N/A,,Scattered Clouds,210,2012-11-23 03:55:00
11:15 PM,55.4,37.4,51,29.87,10.0,SW,12.7,21.9,N/A,,Scattered Clouds,220,2012-11-23 04:15:00
11:35 PM,55.4,37.4,51,29.86,10.0,SW,12.7,23.0,N/A,,Mostly Cloudy,220,2012-11-23 04:35:00
11:55 PM,55.4,39.2,54,29.85,10.0,SW,12.7,24.2,N/A,Rain,Light Rain,220,2012-11-23 04:55:00